When you browse on this site, cookies collect data to enhance your experience and personalize the content and advertising you see.
Visit our Privacy Policy to learn more. By continuing to use the site, you agree to this use of cookies and data.
  • In Lithuania
  • List of Countries
  • For 7 days
  • Water Temperature
  • Weather Map
  • Weather Widgets
  • user-avatar
    Login

    Hourly Weather Tirana

    Today, 29 May, Friday

    Time Temperature Precipitation Wind Pressure Humidity
    00:00 +14°C° 0.1 mm 2 mps 755 mmHg 81%
    01:00 +14°C° 0 mm 2 mps 755 mmHg 81%
    02:00 +14°C° 0.2 mm 2 mps 755 mmHg 80%
    03:00 +13°C° 0.2 mm 2 mps 755 mmHg 80%
    04:00 +13°C° 0.2 mm 2 mps 755 mmHg 80%
    05:00 +15°C° 0.1 mm 2 mps 755 mmHg 74%
    06:00 +16°C° 0.1 mm 3 mps 755 mmHg 69%
    07:00 +18°C° 0.1 mm 3 mps 755 mmHg 63%
    08:00 +19°C° 0 mm 3 mps 755 mmHg 58%
    09:00 +20°C° 0 mm 2 mps 755 mmHg 53%
    10:00 +23°C° 0 mm 2 mps 755 mmHg 48%
    11:00 +23°C° 0.1 mm 2 mps 754 mmHg 48%
    12:00 +24°C° 0.1 mm 3 mps 754 mmHg 48%
    13:00 +24°C° 0.1 mm 3 mps 754 mmHg 47%
    14:00 +22°C° 0.1 mm 4 mps 754 mmHg 49%
    15:00 +22°C° 0.1 mm 4 mps 753 mmHg 51%
    16:00 +21°C° 0.1 mm 5 mps 753 mmHg 53%
    17:00 +20°C° 0 mm 4 mps 753 mmHg 60%
    18:00 +18°C° 0 mm 3 mps 753 mmHg 66%
    19:00 +16°C° 0 mm 3 mps 754 mmHg 73%
    20:00 +16°C° 0 mm 2 mps 754 mmHg 75%
    21:00 +15°C° 0 mm 1 mps 754 mmHg 78%
    22:00 +14°C° 0 mm 1 mps 754 mmHg 80%
    23:00 +14°C° 0 mm 1 mps 754 mmHg 80%

    Tomorrow, 30 May, Saturday

    Time Temperature Precipitation Wind Pressure Humidity
    00:00 +14°C° 0 mm 1 mps 754 mmHg 80%
    01:00 +13°C° 0 mm 2 mps 754 mmHg 79%
    02:00 +13°C° 0 mm 2 mps 754 mmHg 79%
    03:00 +13°C° 0 mm 2 mps 754 mmHg 79%
    04:00 +13°C° 0 mm 2 mps 754 mmHg 79%
    05:00 +15°C° 0 mm 2 mps 754 mmHg 74%
    06:00 +16°C° 0 mm 2 mps 754 mmHg 70%
    07:00 +18°C° 0 mm 2 mps 754 mmHg 65%
    08:00 +19°C° 0.1 mm 2 mps 754 mmHg 60%
    09:00 +20°C° 0.1 mm 3 mps 754 mmHg 56%
    10:00 +21°C° 0.1 mm 3 mps 754 mmHg 51%
    11:00 +22°C° 0.1 mm 3 mps 753 mmHg 50%
    12:00 +22°C° 0.1 mm 3 mps 753 mmHg 49%
    13:00 +22°C° 0.1 mm 4 mps 753 mmHg 48%
    14:00 +22°C° 0 mm 3 mps 753 mmHg 48%
    15:00 +22°C° 0 mm 3 mps 753 mmHg 48%
    16:00 +21°C° 0 mm 2 mps 753 mmHg 48%
    17:00 +20°C° 0 mm 2 mps 753 mmHg 56%
    18:00 +19°C° 0 mm 1 mps 753 mmHg 63%
    19:00 +15°C° 0 mm 0 mps 753 mmHg 70%
    20:00 +16°C° 0 mm 1 mps 753 mmHg 71%
    21:00 +16°C° 0 mm 1 mps 753 mmHg 71%
    22:00 +15°C° 0 mm 1 mps 754 mmHg 71%
    23:00 +15°C° 0 mm 1 mps 753 mmHg 70%

    Day after tomorrow, 31 May, Sunday

    Time Temperature Precipitation Wind Pressure Humidity
    00:00 +15°C° 0 mm 2 mps 753 mmHg 69%
    01:00 +15°C° 0 mm 2 mps 753 mmHg 68%
    02:00 +15°C° 0.1 mm 2 mps 753 mmHg 68%
    03:00 +14°C° 0.1 mm 2 mps 753 mmHg 67%
    04:00 +14°C° 0.1 mm 2 mps 753 mmHg 66%
    05:00 +15°C° 0.1 mm 2 mps 753 mmHg 65%
    06:00 +16°C° 0.1 mm 2 mps 753 mmHg 63%
    07:00 +18°C° 0.1 mm 1 mps 752 mmHg 62%
    08:00 +17°C° 0.1 mm 2 mps 753 mmHg 63%
    09:00 +18°C° 0.1 mm 2 mps 753 mmHg 64%
    10:00 +18°C° 0.1 mm 2 mps 753 mmHg 65%
    11:00 +19°C° 0 mm 2 mps 753 mmHg 61%
    12:00 +21°C° 0 mm 2 mps 752 mmHg 56%
    13:00 +23°C° 0 mm 1 mps 752 mmHg 52%
    14:00 +21°C° 0.1 mm 2 mps 752 mmHg 54%
    15:00 +21°C° 0.1 mm 3 mps 751 mmHg 56%
    16:00 +21°C° 0.1 mm 3 mps 751 mmHg 59%
    17:00 +19°C° 0 mm 3 mps 751 mmHg 66%
    18:00 +18°C° 0 mm 2 mps 751 mmHg 72%
    19:00 +16°C° 0 mm 2 mps 751 mmHg 79%
    20:00 +16°C° 0 mm 2 mps 752 mmHg 81%
    21:00 +15°C° 0 mm 1 mps 752 mmHg 83%
    22:00 +14°C° 0 mm 1 mps 752 mmHg 85%
    23:00 +14°C° 0.3 mm 1 mps 752 mmHg 85%

    1 June, Monday

    Time Temperature Precipitation Wind Pressure Humidity
    00:00 +14°C° 0.3 mm 1 mps 752 mmHg 86%
    01:00 +14°C° 0.3 mm 1 mps 752 mmHg 86%
    02:00 +14°C° 0.3 mm 2 mps 751 mmHg 87%
    03:00 +14°C° 0.3 mm 2 mps 751 mmHg 87%
    04:00 +13°C° 0.3 mm 2 mps 751 mmHg 88%
    05:00 +14°C° 0.3 mm 2 mps 751 mmHg 84%
    06:00 +16°C° 0.3 mm 3 mps 751 mmHg 79%
    07:00 +17°C° 0.3 mm 3 mps 751 mmHg 75%
    08:00 +18°C° 0 mm 3 mps 751 mmHg 68%
    09:00 +20°C° 0 mm 3 mps 751 mmHg 60%
    10:00 +21°C° 0 mm 4 mps 751 mmHg 53%
    11:00 +21°C° 0 mm 4 mps 751 mmHg 53%
    12:00 +22°C° 0 mm 5 mps 750 mmHg 53%
    13:00 +22°C° 0 mm 5 mps 750 mmHg 53%
    14:00 +22°C° 0 mm 5 mps 750 mmHg 55%
    15:00 +21°C° 0 mm 5 mps 750 mmHg 56%
    16:00 +21°C° 0 mm 5 mps 750 mmHg 58%
    17:00 +19°C° 0 mm 4 mps 750 mmHg 64%
    18:00 +18°C° 0 mm 3 mps 750 mmHg 71%
    19:00 +16°C° 0 mm 2 mps 750 mmHg 77%
    20:00 +16°C° 0 mm 2 mps 750 mmHg 80%
    21:00 +15°C° 0 mm 1 mps 750 mmHg 82%
    22:00 +15°C° 0 mm 1 mps 751 mmHg 85%
    23:00 +14°C° 0 mm 1 mps 750 mmHg 85%

    2 June, Tuesday

    Time Temperature Precipitation Wind Pressure Humidity
    00:00 +14°C° 0 mm 2 mps 750 mmHg 86%
    01:00 +14°C° 0 mm 2 mps 750 mmHg 86%
    02:00 +13°C° 0.1 mm 2 mps 750 mmHg 86%
    03:00 +12°C° 0.1 mm 3 mps 749 mmHg 85%
    04:00 +12°C° 0.1 mm 3 mps 749 mmHg 85%
    05:00 +15°C° 0 mm 2 mps 749 mmHg 77%
    06:00 +17°C° 0 mm 2 mps 749 mmHg 70%
    07:00 +18°C° 0 mm 2 mps 749 mmHg 63%
    08:00 +20°C° 0 mm 2 mps 749 mmHg 57%
    09:00 +21°C° 0 mm 3 mps 749 mmHg 52%
    10:00 +24°C° 0 mm 3 mps 749 mmHg 46%
    11:00 +23°C° 0 mm 4 mps 749 mmHg 46%
    12:00 +25°C° 0 mm 5 mps 749 mmHg 46%
    13:00 +24°C° 0 mm 6 mps 748 mmHg 45%
    14:00 +24°C° 0 mm 7 mps 748 mmHg 48%
    15:00 +23°C° 0 mm 7 mps 748 mmHg 51%
    16:00 +23°C° 0 mm 7 mps 748 mmHg 54%
    17:00 +21°C° 0 mm 6 mps 748 mmHg 61%
    18:00 +19°C° 0 mm 6 mps 748 mmHg 69%
    19:00 +17°C° 0 mm 5 mps 748 mmHg 76%
    20:00 +17°C° 0 mm 4 mps 749 mmHg 77%
    21:00 +16°C° 0 mm 3 mps 749 mmHg 79%
    22:00 +16°C° 0 mm 3 mps 749 mmHg 81%
    23:00 +14°C° 0 mm 3 mps 749 mmHg 80%

    3 June, Wednesday

    Time Temperature Precipitation Wind Pressure Humidity
    00:00 +14°C° 0 mm 3 mps 749 mmHg 79%
    01:00 +14°C° 0 mm 3 mps 749 mmHg 79%
    02:00 +14°C° 0 mm 3 mps 749 mmHg 77%
    03:00 +14°C° 0 mm 2 mps 749 mmHg 76%
    04:00 +14°C° 0 mm 2 mps 749 mmHg 74%
    05:00 +16°C° 0 mm 2 mps 749 mmHg 68%
    06:00 +18°C° 0 mm 2 mps 749 mmHg 62%
    07:00 +21°C° 0 mm 1 mps 749 mmHg 57%
    08:00 +21°C° 0 mm 2 mps 749 mmHg 53%
    09:00 +24°C° 0 mm 2 mps 749 mmHg 49%
    10:00 +25°C° 0 mm 3 mps 749 mmHg 45%
    11:00 +25°C° 0.1 mm 4 mps 749 mmHg 46%
    12:00 +25°C° 0.1 mm 5 mps 749 mmHg 48%
    13:00 +24°C° 0.1 mm 6 mps 749 mmHg 49%
    14:00 +24°C° 0.1 mm 6 mps 749 mmHg 52%
    15:00 +23°C° 0.1 mm 5 mps 749 mmHg 56%
    16:00 +22°C° 0.1 mm 5 mps 749 mmHg 59%
    17:00 +21°C° 0 mm 4 mps 749 mmHg 64%
    18:00 +19°C° 0 mm 3 mps 749 mmHg 70%
    19:00 +18°C° 0 mm 2 mps 749 mmHg 76%
    20:00 +17°C° 0 mm 2 mps 750 mmHg 78%
    21:00 +16°C° 0 mm 1 mps 750 mmHg 80%
    22:00 +16°C° 0 mm 1 mps 751 mmHg 83%
    23:00 +15°C° 0 mm 1 mps 751 mmHg 84%
    Show more